Location: Cruquius
(52.3348°N, 4.6319°E)
Time: 20:37:21
(UTC+00:00)

Cosmos 44 - Pass Details

Date: 12 May 2021
Orbit: 571 x 791 km, 65.1° (Epoch: 20 June)

Event Time Altitude Azimuth Distance (km) Brightness Sun altitude
Rises 22:18:12 0° 315° (NW) 3,298 8.0 -17.2°
Reaches altitude 10° 22:20:45 10° 309° (NW) 2,359 6.9 -17.3°
Maximum altitude 22:25:51 42° 240° (WSW) 1,095 4.2 -17.6°
Enters shadow 22:28:04 28° 190° (S) 1,410 4.4 -17.7°
